Torna al catalogo

THOR AGENA B R/B

AttivoPO
NORAD 741·ROCKET BODY·🇺🇸 United States

Lanciato Jan 25, 1964 da Vandenberg Space Force Base

Loading…

Prossimi Passaggi (prossime 24 ore)

TLE

AggiornatoSource: Space-Track

Epoca: Sep 14, 2026, 01:39 UTC

1 00741U 64004B   26257.06932344  .00000066  00000-0  11897-3 0  9990
2 00741  81.4862  90.1212 0172328  31.2215 134.5828 13.23830227 24834

Traccia THOR AGENA B R/B in tempo reale con AllMySat

Download on the App Store